JCSAT-17

Last updated on Oct. 31, 2020, 5:53 a.m. UTC

1 45245U 20013A   20303.47112511 -.00000326  00000-0  00000-0 0  9998
2 45245   6.7612 344.0283 0003311 222.8210 137.0234  1.00272751  2617
UTC
Height (km)
Latitude
Longitude
Inclination
Orbital Period
UTC large
Height (km)
Speed (km/s)
/
Latitude / Longitude
Inclination (degrees)
Orbital Period (minutes)
Azimuth
Elevation
Range (km)
Doppler Factor
iOS Compass Heading
iOS Angle

Next 30 passes for location: Hong Kong

Rise time Rise Azimuth (degrees) Set time Set Azimuth (degrees) Duration Max altitude (degrees)

No matching passes for this satellites